EW1079 Weather Reports


Display with metric or nautical units.
time (UTC)temp
F
wind
direction
speed
MPH
gust
MPH
rain 1hr
in
rain 24hr
in
rain mn
in
humidity
%
barometer
mb
20180716161006 80 287 3.0 7.0 0.00 0.00 0.00 38 1010.6
20180716160506 80 293 3.0 8.0 0.00 0.00 0.00 38 1010.6
20180716155007 81 318 3.0 10.0 0.00 0.00 0.00 37 1010.7
20180716154507 81 294 2.0 6.0 0.00 0.00 0.00 37 1010.6
20180716153506 82 313 2.0 8.0 0.00 0.00 0.00 36 1010.7
20180716153007 82 310 3.0 10.0 0.00 0.00 0.00 36 1010.8
20180716152506 82 315 2.0 10.0 0.00 0.00 0.00 35 1010.9
20180716151507 82 324 3.0 11.0 0.00 0.00 0.00 34 1010.8
20180716145007 83 309 3.0 9.0 0.00 0.00 0.00 34 1010.9
20180716144506 83 313 3.0 8.0 0.00 0.00 0.00 35 1010.8
20180716144006 83 311 2.0 8.0 0.00 0.00 0.00 37 1010.8
20180716143507 83 353 2.0 7.0 0.00 0.00 0.00 35 1010.8
20180716142006 83 256 1.0 5.0 0.00 0.00 0.00 36 1010.9
20180716141506 83 311 2.0 10.0 0.00 0.00 0.00 35 1010.9
20180716140006 82 309 3.0 10.0 0.00 0.00 0.00 33 1011.1
20180716135506 82 303 3.0 10.0 0.00 0.00 0.00 34 1011.1
20180716135006 83 314 3.0 8.0 0.00 0.00 0.00 34 1011.2
20180716133507 82 325 2.0 8.0 0.00 0.00 0.00 37 1011.3
20180716133007 82 304 2.0 8.0 0.00 0.00 0.00 34 1011.3
20180716132006 82 358 2.0 8.0 0.00 0.00 0.00 33 1011.5
20180716131506 82 347 1.0 8.0 0.00 0.00 0.00 34 1011.6
20180716130507 82 318 4.0 9.0 0.00 0.00 0.00 35 1011.8
20180716124006 81 344 3.0 7.0 0.00 0.00 0.00 35 1012.0
20180716123507 81 323 3.0 7.0 0.00 0.00 0.00 35 1012.0
20180716123006 83 290 2.0 8.0 0.00 0.00 0.00 35 1012.1
20180716122007 82 260 3.0 7.0 0.00 0.00 0.00 36 1012.3
20180716120007 82 348 2.0 8.0 0.00 0.00 0.00 38 1012.6
20180716115007 81 356 3.0 8.0 0.00 0.00 0.00 39 1012.7
20180716114006 80 354 2.0 6.0 0.00 0.00 0.00 38 1012.8
20180716113006 79 351 4.0 10.0 0.00 0.00 0.00 41 1013.0
20180716111006 79 69 2.0 9.0 0.00 0.00 0.00 44 1013.0
20180716110506 79 46 2.0 7.0 0.00 0.00 0.00 44 1013.0
20180716105506 79 333 4.0 10.0 0.00 0.00 0.00 39 1013.1
20180716105002 79 326 3.0 8.0 0.00 0.00 0.00 40 1013.2
20180716104506 80 341 3.0 7.0 0.00 0.00 0.00 43 1013.1
20180716103506 80 261 1.0 7.0 0.00 0.00 0.00 44 1013.2
20180716102506 78 326 2.0 8.0 0.00 0.00 0.00 43 1013.3
20180716102006 78 337 2.0 7.0 0.00 0.00 0.00 44 1013.4
20180716101507 78 321 4.0 9.0 0.00 0.00 0.00 44 1013.4
20180716100007 78 61 3.0 6.0 0.00 0.00 0.00 47 1013.6
20180716095506 78 85 2.0 6.0 0.00 0.00 0.00 48 1013.6
20180716095006 77 88 3.0 10.0 0.00 0.00 0.00 48 1013.5
20180716094506 77 84 4.0 10.0 0.00 0.00 0.00 47 1013.6
20180716094007 78 74 3.0 7.0 0.00 0.00 0.00 45 1013.6
20180716093506 77 17 2.0 8.0 0.00 0.00 0.00 46 1013.7
20180716092506 76 37 3.0 7.0 0.00 0.00 0.00 47 1013.8
20180716092006 76 55 2.0 5.0 0.00 0.00 0.00 48 1013.8
20180716090006 77 335 2.0 7.0 0.00 0.00 0.00 47 1013.6
20180716085006 77 341 2.0 7.0 0.00 0.00 0.00 47 1013.8
20180716084507 77 346 1.0 7.0 0.00 0.00 0.00 49 1013.8
20180716084006 76 358 2.0 5.0 0.00 0.00 0.00 51 1013.8
20180716082006 76 29 3.0 8.0 0.00 0.00 0.00 49 1013.9
20180716081006 76 2 1.0 5.0 0.00 0.00 0.00 53 1013.9
20180716080006 74 330 2.0 7.0 0.00 0.00 0.00 55 1013.9
20180716075506 75 322 1.0 7.0 0.00 0.00 0.00 53 1014.0
20180716074007 73 344 3.0 7.0 0.00 0.00 0.00 58 1014.0
20180716073506 73 328 3.0 7.0 0.00 0.00 0.00 56 1014.0
20180716073007 73 324 2.0 6.0 0.00 0.00 0.00 55 1014.0
20180716072506 74 299 1.0 3.0 0.00 0.00 0.00 59 1014.1
20180716071507 73 272 1.0 3.0 0.00 0.00 0.00 62 1014.0
20180716071005 72 271 0.0 3.0 0.00 0.00 0.00 61 1014.1
20180716070006 71 241 1.0 3.0 0.00 0.00 0.00 62 1014.2
20180716065506 71 243 1.0 3.0 0.00 0.00 0.00 62 1014.1
20180716063006 69 235 1.0 3.0 0.00 0.00 0.00 64 1014.2
20180716061506 67 225 0.0 1.0 0.00 0.00 0.00 67 1014.2
20180716060006 65 211 1.0 3.0 0.00 0.00 0.00 72 1014.2
20180716055505 65 75 0.0 3.0 0.00 0.00 0.00 73 1014.2
20180716054006 63 57 0.0 1.0 0.00 0.00 0.00 76 1014.2
20180716053506 62 57 0.0 1.0 0.00 0.00 0.00 76 1014.2
20180716053006 62 57 0.0 1.0 0.00 0.00 0.00 78 1014.3
20180716052506 61 57 0.0 1.0 0.00 0.00 0.00 80 1014.3
20180716051506 60 0 0.0 0.0 0.00 0.00 0.00 81 1014.4
20180716051006 59 0 0.0 0.0 0.00 0.00 0.00 81 1014.5
20180716050505 58 0 0.0 0.0 0.00 0.00 0.00 83 1014.6
20180716044006 56 57 0.0 1.0 0.00 0.00 0.00 89 1014.5
20180716043506 55 59 0.0 2.0 0.00 0.00 0.00 89 1014.4
20180716042006 53 73 0.0 2.0 0.00 0.00 0.00 92 1014.5
20180716041506 53 73 0.0 1.0 0.00 0.00 0.00 92 1014.5
20180716040506 52 73 0.0 1.0 0.00 0.00 0.00 92 1014.4
20180716040019 52 71 0.0 3.0 0.00 0.00 0.00 93 1014.4
20180716035506 52 71 0.0 3.0 0.00 0.00 0.00 92 1014.5
20180716035005 52 0 0.0 0.0 0.00 0.00 0.00 92 1014.5
20180716033505 52 0 0.0 0.0 0.00 0.00 0.00 92 1014.6
20180716030505 52 0 0.0 0.0 0.00 0.00 0.00 92 1014.6
20180716030006 52 0 0.0 0.0 0.00 0.00 0.00 92 1014.7
20180716025506 52 41 0.0 2.0 0.00 0.00 0.00 92 1014.7
20180716024506 52 35 0.0 2.0 0.00 0.00 0.00 91 1014.6
20180716024003 52 29 0.0 2.0 0.00 0.00 0.00 91 1014.6
20180716023506 53 0 0.0 0.0 0.00 0.00 0.00 91 1014.7
20180716022506 53 0 0.0 0.0 0.00 0.00 0.00 90 1014.9
20180716021006 53 87 0.0 2.0 0.00 0.00 0.00 90 1014.8
20180716015505 54 74 0.0 2.0 0.00 0.00 0.00 89 1014.8
20180716015007 54 55 0.0 2.0 0.00 0.00 0.00 90 1014.7
20180716014506 54 55 0.0 2.0 0.00 0.00 0.00 90 1014.8
20180716014006 54 55 0.0 2.0 0.00 0.00 0.00 90 1014.9
20180716013505 54 56 0.0 2.0 0.00 0.00 0.00 90 1014.9
20180716013006 54 56 0.0 2.0 0.00 0.00 0.00 90 1014.9
20180716011505 54 0 0.0 0.0 0.00 0.00 0.00 90 1015.0
20180716011005 54 0 0.0 0.0 0.00 0.00 0.00 90 1015.1
20180716010505 54 55 0.0 1.0 0.00 0.00 0.00 90 1015.0
20180716010006 54 55 0.0 1.0 0.00 0.00 0.00 90 1015.0
20180716005509 54 0 0.0 0.0 0.00 0.00 0.00 90 1015.0
20180716005005 54 55 0.0 1.0 0.00 0.00 0.00 90 1015.1
20180716004505 54 55 0.0 1.0 0.00 0.00 0.00 90 1015.0
20180716004006 54 56 0.0 2.0 0.00 0.00 0.00 89 1014.9
20180716003005 55 55 0.0 1.0 0.00 0.00 0.00 89 1015.1
20180716002505 55 55 0.0 1.0 0.00 0.00 0.00 88 1015.2
20180716002006 55 55 0.0 1.0 0.00 0.00 0.00 89 1015.2
20180716000506 55 0 0.0 0.0 0.00 0.00 0.00 87 1015.1
20180716000006 56 55 0.0 1.0 0.00 0.00 0.00 87 1015.2
20180715235505 56 55 0.0 2.0 0.00 0.00 0.00 87 1015.1
20180715234006 56 0 0.0 0.0 0.00 0.00 0.00 88 1015.0
20180715233505 56 0 0.0 0.0 0.00 0.00 0.00 88 1015.0
20180715232005 57 0 0.0 0.0 0.00 0.00 0.00 86 1015.0
20180715231505 57 0 0.0 0.0 0.00 0.00 0.00 84 1015.0
20180715231005 58 55 0.0 2.0 0.00 0.00 0.00 84 1015.1
20180715225505 59 55 0.0 2.0 0.00 0.00 0.00 83 1015.1
20180715225002 59 55 1.0 2.0 0.00 0.00 0.00 83 1015.1
20180715224505 59 58 1.0 2.0 0.00 0.00 0.00 83 1015.2
20180715224005 59 59 1.0 2.0 0.00 0.00 0.00 84 1015.2
20180715223505 59 60 1.0 2.0 0.00 0.00 0.00 84 1015.1
20180715223005 59 60 1.0 3.0 0.00 0.00 0.00 84 1015.1
20180715222505 59 61 1.0 3.0 0.00 0.00 0.00 84 1015.1
20180715221005 59 60 1.0 2.0 0.00 0.00 0.00 84 1015.1
20180715220016 60 56 1.0 3.0 0.00 0.00 0.00 82 1015.0
20180715215006 60 55 1.0 3.0 0.00 0.00 0.00 83 1015.1
20180715214505 60 58 0.0 2.0 0.00 0.00 0.00 83 1015.0
20180715214006 61 58 1.0 2.0 0.00 0.00 0.00 83 1015.1
20180715213505 61 58 0.0 2.0 0.00 0.00 0.00 82 1015.0
20180715213005 61 58 1.0 2.0 0.00 0.00 0.00 82 1015.0
20180715211506 62 59 1.0 2.0 0.00 0.00 0.00 81 1015.0
20180715211006 62 59 0.0 1.0 0.00 0.00 0.00 81 1015.0
20180715205505 62 61 0.0 2.0 0.00 0.00 0.00 79 1015.0
20180715205006 63 0 0.0 0.0 0.00 0.00 0.00 78 1015.0
20180715202005 64 58 1.0 3.0 0.00 0.00 0.00 71 1014.9
20180715201505 65 63 1.0 3.0 0.00 0.00 0.00 71 1014.8
20180715201002 65 73 1.0 3.0 0.00 0.00 0.00 69 1014.8
20180715200505 65 74 1.0 3.0 0.00 0.00 0.00 69 1014.8
20180715200005 66 62 0.0 2.0 0.00 0.00 0.00 67 1014.7
20180715195505 66 52 0.0 2.0 0.00 0.00 0.00 66 1014.7
20180715194505 68 9 0.0 1.0 0.00 0.00 0.00 61 1014.8
20180715194005 69 7 0.0 2.0 0.00 0.00 0.00 59 1014.7
20180715191505 70 352 1.0 4.0 0.00 0.00 0.00 58 1014.5
20180715190006 71 14 1.0 5.0 0.00 0.00 0.00 57 1014.3
20180715184005 72 13 0.0 4.0 0.00 0.00 0.00 57 1014.1
20180715183505 72 18 0.0 4.0 0.00 0.00 0.00 58 1014.1
20180715183005 72 19 1.0 4.0 0.00 0.00 0.00 58 1014.1
20180715182505 72 13 1.0 4.0 0.00 0.00 0.00 57 1014.1
20180715181505 73 17 1.0 5.0 0.00 0.00 0.00 57 1014.0
20180715181005 73 16 1.0 4.0 0.00 0.00 0.00 56 1014.0
20180715175505 74 26 1.0 4.0 0.00 0.00 0.00 56 1013.9
20180715174505 74 39 2.0 7.0 0.00 0.00 0.00 55 1013.9
20180715174005 74 46 2.0 7.0 0.00 0.00 0.00 55 1013.9
20180715165005 76 316 2.0 7.0 0.00 0.00 0.00 50 1013.8
20180715164505 76 328 2.0 7.0 0.00 0.00 0.00 50 1013.8
20180715163504 77 326 3.0 8.0 0.00 0.00 0.00 50 1013.9
20180715162505 77 351 2.0 8.0 0.00 0.00 0.00 51 1014.0
20180715162005 77 359 3.0 8.0 0.00 0.00 0.00 50 1014.1
20180715161505 77 348 3.0 8.0 0.00 0.00 0.00 50 1014.1